,,Stat5,,Stat1,,Stat2,,Stat3,,Stat4,,Wind1,,Wind1,
time,status,PA1M_AVG,status,PR1M_SUM,status,RH1M_AVG,status,SR1M_AVG,status,TA1M_AVG,status,W1dAve1m,status,W1sAve1m,
2002-05-16, 00:00:00,VALID,919.882,VALID,0,VALID,95.4238,VALID,0,VALID,17.9495,VALID,153,VALID,0.576522,
2002-05-16, 00:01:00,VALID,919.879,VALID,0,VALID,95.0245,VALID,0.0509425,VALID,17.8589,VALID,127,VALID,0.50884,
2002-05-16, 00:02:00,VALID,919.855,VALID,0,VALID,95.6094,VALID,0.0339617,VALID,17.8167,VALID,137,VALID,0.823057,
2002-05-16, 00:03:00,VALID,919.863,VALID,0,VALID,96.4995,VALID,0.0169808,VALID,17.8621,VALID,137,VALID,0.786595,
2002-05-16, 00:04:00,VALID,919.867,VALID,0,VALID,96.6903,VALID,0,VALID,17.9235,VALID,132,VALID,0.469172,
2002-05-16, 00:05:00,VALID,919.843,VALID,0,VALID,96.5059,VALID,0,VALID,17.9331,VALID,123,VALID,0.635769,
2002-05-16, 00:06:00,VALID,919.832,VALID,0,VALID,96.3457,VALID,0.0339617,VALID,17.9041,VALID,125,VALID,0.68129,
2002-05-16, 00:07:00,VALID,919.823,VALID,0,VALID,96.5847,VALID,0.0169808,VALID,17.8974,VALID,125,VALID,0.954427,
2002-05-16, 00:08:00,VALID,919.81,VALID,0,VALID,96.4448,VALID,0,VALID,17.9133,VALID,125,VALID,0.922297,
2002-05-16, 00:09:00,VALID,919.806,VALID,0,VALID,96.1435,VALID,-0.0679233,VALID,17.9244,VALID,117,VALID,1.2027,
2002-05-16, 00:10:00,VALID,919.791,VALID,0,VALID,95.8726,VALID,-0.0849042,VALID,17.9276,VALID,116,VALID,1.40275,
2002-05-16, 00:11:00,VALID,919.773,VALID,0,VALID,95.9667,VALID,-0.101885,VALID,17.9636,VALID,118,VALID,1.39679,
2002-05-16, 00:12:00,VALID,919.739,VALID,0,VALID,95.7378,VALID,-0.0849042,VALID,18.0478,VALID,112,VALID,1.28494,
2002-05-16, 00:13:00,VALID,919.739,VALID,0,VALID,95.5967,VALID,-0.0679233,VALID,18.0574,VALID,113,VALID,1.23015,
2002-05-16, 00:14:00,VALID,919.321,VALID,0,VALID,95.5611,VALID,-0.0849042,VALID,18.0443,VALID,115,VALID,1.15169,
2002-05-16, 00:15:00,VALID,919.725,VALID,0,VALID,95.5178,VALID,-0.101885,VALID,18.0284,VALID,123,VALID,1.04609,
2002-05-16, 00:16:00,VALID,919.728,VALID,0,VALID,95.5725,VALID,-0.0849042,VALID,18.0185,VALID,118,VALID,0.803486,
2002-05-16, 00:17:00,VALID,919.726,VALID,0,VALID,95.5293,VALID,-0.0509425,VALID,18.0251,VALID,114,VALID,1.00633,
2002-05-16, 00:18:00,VALID,919.717,VALID,0,VALID,95.4339,VALID,-0.0849042,VALID,18.054,VALID,113,VALID,1.29502,
2002-05-16, 00:19:00,VALID,919.712,VALID,0,VALID,95.1885,VALID,-0.0509425,VALID,18.06,VALID,115,VALID,1.28624,
2002-05-16, 00:20:00,VALID,919.686,VALID,0,VALID,95.0028,VALID,-0.0679233,VALID,18.096,VALID,112,VALID,1.20819,
2002-05-16, 00:21:00,VALID,919.672,VALID,0,VALID,94.7142,VALID,-0.0339617,VALID,18.1246,VALID,108,VALID,1.3744,
2002-05-16, 00:22:00,VALID,919.64,VALID,0,VALID,94.3162,VALID,-0.0679233,VALID,18.1629,VALID,113,VALID,1.38387,
2002-05-16, 00:23:00,VALID,919.619,VALID,0,VALID,93.8724,VALID,-0.0509425,VALID,18.212,VALID,118,VALID,1.43668,
2002-05-16, 00:24:00,VALID,919.606,VALID,0,VALID,93.4922,VALID,0,VALID,18.2466,VALID,115,VALID,1.35473,
2002-05-16, 00:25:00,VALID,919.589,VALID,0,VALID,93.1984,VALID,0.0339617,VALID,18.2916,VALID,115,VALID,1.09797,
2002-05-16, 00:26:00,VALID,919.578,VALID,0,VALID,93.1209,VALID,0.0339617,VALID,18.3013,VALID,118,VALID,0.986579,
2002-05-16, 00:27:00,VALID,919.57,VALID,0,VALID,93.1692,VALID,0.0169808,VALID,18.3045,VALID,113,VALID,0.976997,
2002-05-16, 00:28:00,VALID,919.554,VALID,0,VALID,93.1908,VALID,0,VALID,18.2983,VALID,106,VALID,1.0492,
2002-05-16, 00:29:00,VALID,919.538,VALID,0,VALID,93.2607,VALID,0,VALID,18.2948,VALID,111,VALID,1.16026,
2002-05-16, 00:30:00,VALID,919.526,VALID,0,VALID,93.0993,VALID,0,VALID,18.2946,VALID,110,VALID,1.16838,
2002-05-16, 00:31:00,VALID,919.517,VALID,0,VALID,92.8818,VALID,0.0339617,VALID,18.3172,VALID,108,VALID,1.24959,
2002-05-16, 00:32:00,VALID,919.521,VALID,0,VALID,92.3566,VALID,0,VALID,18.3594,VALID,103,VALID,1.1684,
2002-05-16, 00:33:00,VALID,919.514,VALID,0,VALID,91.4513,VALID,0.0509425,VALID,18.3984,VALID,88,VALID,1.00612,
2002-05-16, 00:34:00,VALID,919.517,VALID,0,VALID,91.319,VALID,0.0169808,VALID,18.3624,VALID,83,VALID,0.923177,
2002-05-16, 00:35:00,VALID,919.517,VALID,0,VALID,91.8264,VALID,0.0169808,VALID,18.3661,VALID,92,VALID,1.09375,
2002-05-16, 00:36:00,VALID,919.51,VALID,0,VALID,91.3979,VALID,0.0509425,VALID,18.424,VALID,85,VALID,1.07472,
2002-05-16, 00:37:00,VALID,919.498,VALID,0,VALID,91.0825,VALID,0.0169808,VALID,18.4658,VALID,82,VALID,0.826858,
2002-05-16, 00:38:00,VALID,919.488,VALID,0,VALID,90.4416,VALID,0.0339617,VALID,18.4399,VALID,81,VALID,0.555099,
2002-05-16, 00:39:00,VALID,919.483,VALID,0,VALID,90.6603,VALID,0,VALID,18.3179,VALID,71,VALID,0.482639,
2002-05-16, 00:40:00,VALID,919.455,VALID,0,VALID,91.9306,VALID,-0.0679233,VALID,18.2891,VALID,83,VALID,0.363176,
2002-05-16, 00:41:00,VALID,919.428,VALID,0,VALID,91.4525,VALID,-0.0339617,VALID,18.26,VALID,83,VALID,0.0665064,
2002-05-16, 00:42:00,VALID,919.416,VALID,0,VALID,91.4627,VALID,-0.0339617,VALID,18.1926,VALID,83,VALID,0,
2002-05-16, 00:43:00,VALID,919.405,VALID,0,VALID,92.0718,VALID,-0.0679233,VALID,18.1795,VALID,83,VALID,0,
2002-05-16, 00:44:00,VALID,919.401,VALID,0,VALID,91.806,VALID,-0.0509425,VALID,18.1698,VALID,83,VALID,0.105785,
2002-05-16, 00:45:00,VALID,919.401,VALID,0,VALID,92.3363,VALID,-0.0679233,VALID,18.1313,VALID,83,VALID,0.162796,
2002-05-16, 00:46:00,VALID,919.403,VALID,0,VALID,92.508,VALID,-0.0849042,VALID,18.0987,VALID,83,VALID,0.199119,
2002-05-16, 00:47:00,VALID,919.419,VALID,0,VALID,92.6593,VALID,-0.0849042,VALID,18.06,VALID,83,VALID,0,
2002-05-16, 00:48:00,VALID,919.406,VALID,0,VALID,92.6745,VALID,-0.0679233,VALID,18.0083,VALID,83,VALID,0.000844595,
2002-05-16, 00:49:00,VALID,919.401,VALID,0,VALID,92.4456,VALID,-0.0339617,VALID,17.9465,VALID,83,VALID,0.000422297,
2002-05-16, 00:50:00,VALID,919.38,VALID,0,VALID,92.2867,VALID,-0.0339617,VALID,17.8821,VALID,83,VALID,0,
2002-05-16, 00:51:00,VALID,919.367,VALID,0,VALID,92.2524,VALID,-0.0169808,VALID,17.7687,VALID,79,VALID,0,
2002-05-16, 00:52:00,VALID,919.362,VALID,0,VALID,92.5957,VALID,-0.0339617,VALID,17.7078,VALID,79,VALID,0,
2002-05-16, 00:53:00,VALID,919.346,VALID,0,VALID,92.9276,VALID,-0.0339617,VALID,17.6464,VALID,79,VALID,0,
2002-05-16, 00:54:00,VALID,919.332,VALID,0,VALID,93.1107,VALID,-0.0169808,VALID,17.6079,VALID,79,VALID,0,
2002-05-16, 00:55:00,VALID,919.323,VALID,0,VALID,93.4757,VALID,-0.0339617,VALID,17.5592,VALID,78,VALID,0,
2002-05-16, 00:56:00,VALID,919.301,VALID,0,VALID,93.8393,VALID,-0.0169808,VALID,17.5403,VALID,71,VALID,0,
2002-05-16, 00:57:00,VALID,919.278,VALID,0,VALID,94.1483,VALID,-0.0509425,VALID,17.5242,VALID,71,VALID,0,
2002-05-16, 00:58:00,VALID,919.26,VALID,0,VALID,94.1547,VALID,-0.0679233,VALID,17.5112,VALID,67,VALID,0.116776,
2002-05-16, 00:59:00,VALID,919.251,VALID,0,VALID,93.8482,VALID,-0.0509425,VALID,17.4566,VALID,49,VALID,0.413845,
2002-05-16, 01:00:00,VALID,919.211,VALID,0,VALID,94.0161,VALID,-0.0169808,VALID,17.404,VALID,49,VALID,0.436444,
2002-05-16, 01:01:00,VALID,919.18,VALID,0,VALID,94.3047,VALID,-0.0339617,VALID,17.3881,VALID,49,VALID,0.509816,
2002-05-16, 01:02:00,VALID,919.147,VALID,0,VALID,94.774,VALID,-0.0509425,VALID,17.4107,VALID,49,VALID,0.586782,
2002-05-16, 01:03:00,VALID,919.11,VALID,0,VALID,94.9647,VALID,-0.0679233,VALID,17.4497,VALID,59,VALID,0.573602,
2002-05-16, 01:04:00,VALID,919.091,VALID,0,VALID,94.704,VALID,-0.0679233,VALID,17.5048,VALID,84,VALID,0.55152,
2002-05-16, 01:05:00,VALID,919.051,VALID,0,VALID,93.9779,VALID,-0.0339617,VALID,17.5235,VALID,101,VALID,0.51288,
2002-05-16, 01:06:00,VALID,919.015,VALID,0,VALID,93.0509,VALID,-0.0169808,VALID,17.4949,VALID,115,VALID,0.450321,
2002-05-16, 01:07:00,VALID,918.973,VALID,0,VALID,93.0153,VALID,-0.0339617,VALID,17.3948,VALID,128,VALID,0.710938,
2002-05-16, 01:08:00,VALID,918.948,VALID,0,VALID,93.8826,VALID,-0.0509425,VALID,17.3629,VALID,129,VALID,1.09671,
2002-05-16, 01:09:00,VALID,918.924,VALID,0,VALID,94.7549,VALID,-0.0509425,VALID,17.3786,VALID,131,VALID,1.18623,
2002-05-16, 01:10:00,VALID,918.919,VALID,0,VALID,94.7689,VALID,-0.0509425,VALID,17.4275,VALID,126,VALID,0.944901,
2002-05-16, 01:11:00,VALID,918.896,VALID,0,VALID,94.999,VALID,-0.0339617,VALID,17.4531,VALID,123,VALID,0.90111,
2002-05-16, 01:12:00,VALID,918.884,VALID,0,VALID,95.4543,VALID,-0.0339617,VALID,17.4979,VALID,119,VALID,1.09375,
2002-05-16, 01:13:00,VALID,918.867,VALID,0,VALID,96.1117,VALID,-0.0679233,VALID,17.5696,VALID,113,VALID,1.6326,
2002-05-16, 01:14:00,VALID,918.865,VALID,0,VALID,96.2083,VALID,-0.0509425,VALID,17.5984,VALID,118,VALID,1.38455,
2002-05-16, 01:15:00,VALID,918.861,VALID,0,VALID,96.4003,VALID,-0.0339617,VALID,17.6113,VALID,113,VALID,1.40508,
2002-05-16, 01:16:00,VALID,918.871,VALID,0,VALID,96.3266,VALID,-0.0679233,VALID,17.6243,VALID,115,VALID,1.36378,
2002-05-16, 01:17:00,VALID,918.859,VALID,0,VALID,96.0519,VALID,-0.0339617,VALID,17.621,VALID,118,VALID,1.53399,
2002-05-16, 01:18:00,VALID,918.828,VALID,0,VALID,95.7862,VALID,-0.101885,VALID,17.6077,VALID,114,VALID,1.62747,
2002-05-16, 01:19:00,VALID,918.809,VALID,0,VALID,95.5102,VALID,-0.0849042,VALID,17.6245,VALID,113,VALID,1.53125,
2002-05-16, 01:20:00,VALID,918.785,VALID,0,VALID,95.2673,VALID,-0.0509425,VALID,17.6339,VALID,118,VALID,1.37078,
2002-05-16, 01:21:00,VALID,918.782,VALID,0,VALID,95.2063,VALID,-0.0849042,VALID,17.6342,VALID,119,VALID,1.29067,
2002-05-16, 01:22:00,VALID,918.768,VALID,0,VALID,95.1109,VALID,-0.0169808,VALID,17.6406,VALID,138,VALID,0.881123,
2002-05-16, 01:23:00,VALID,918.734,VALID,0,VALID,95.1033,VALID,-0.0679233,VALID,17.621,VALID,131,VALID,0.904811,
2002-05-16, 01:24:00,VALID,918.718,VALID,0,VALID,95.275,VALID,0.0509425,VALID,17.5874,VALID,126,VALID,1.08573,
2002-05-16, 01:25:00,VALID,918.713,VALID,0,VALID,95.4199,VALID,0,VALID,17.5973,VALID,115,VALID,1.40794,
2002-05-16, 01:26:00,VALID,918.683,VALID,0,VALID,95.378,VALID,0.0169808,VALID,17.5906,VALID,117,VALID,1.47837,
2002-05-16, 01:27:00,VALID,918.66,VALID,0,VALID,95.4098,VALID,0.0679233,VALID,17.6003,VALID,124,VALID,1.31749,
2002-05-16, 01:28:00,VALID,918.636,VALID,0,VALID,95.2775,VALID,0.0339617,VALID,17.6072,VALID,130,VALID,0.786318,
2002-05-16, 01:29:00,VALID,918.629,VALID,0,VALID,95.2406,VALID,0.0509425,VALID,17.5874,VALID,126,VALID,0.870777,
2002-05-16, 01:30:00,VALID,918.633,VALID,0,VALID,95.4034,VALID,0.0679233,VALID,17.5842,VALID,121,VALID,0.927015,
2002-05-16, 01:31:00,VALID,918.629,VALID,0,VALID,95.3983,VALID,0.0509425,VALID,17.6036,VALID,123,VALID,0.981702,
2002-05-16, 01:32:00,VALID,918.63,VALID,0,VALID,95.1554,VALID,0.0679233,VALID,17.6109,VALID,116,VALID,1.05447,
2002-05-16, 01:33:00,VALID,918.617,VALID,0,VALID,94.7282,VALID,0.0169808,VALID,17.6068,VALID,114,VALID,1.03885,
2002-05-16, 01:34:00,VALID,918.623,VALID,0,VALID,94.2157,VALID,0.0679233,VALID,17.6227,VALID,122,VALID,0.953559,
2002-05-16, 01:35:00,VALID,918.609,VALID,0,VALID,93.5443,VALID,0.0679233,VALID,17.6679,VALID,126,VALID,1.2459,
2002-05-16, 01:36:00,VALID,918.59,VALID,0,VALID,92.7381,VALID,0.0509425,VALID,17.7461,VALID,120,VALID,1.22115,
2002-05-16, 01:37:00,VALID,918.577,VALID,0,VALID,91.9421,VALID,0.0849042,VALID,17.8231,VALID,120,VALID,1.40435,
2002-05-16, 01:38:00,VALID,918.567,VALID,0,VALID,91.2186,VALID,0.0169808,VALID,17.9295,VALID,115,VALID,1.4484,
2002-05-16, 01:39:00,VALID,918.563,VALID,0,VALID,90.4136,VALID,0,VALID,18.0542,VALID,111,VALID,1.41428,
2002-05-16, 01:40:00,VALID,918.579,VALID,0,VALID,89.7867,VALID,-0.0679233,VALID,18.1543,VALID,116,VALID,1.33953,
2002-05-16, 01:41:00,VALID,918.578,VALID,0,VALID,89.4676,VALID,-0.0679233,VALID,18.2222,VALID,115,VALID,1.4345,
2002-05-16, 01:42:00,VALID,918.564,VALID,0,VALID,89.1497,VALID,-0.0849042,VALID,18.2801,VALID,114,VALID,1.58847,
2002-05-16, 01:43:00,VALID,918.544,VALID,0,VALID,88.9996,VALID,-0.0849042,VALID,18.3128,VALID,114,VALID,1.53351,
2002-05-16, 01:44:00,VALID,918.511,VALID,0,VALID,88.9576,VALID,-0.0849042,VALID,18.332,VALID,104,VALID,1.33214,
2002-05-16, 01:45:00,VALID,918.489,VALID,0,VALID,89.0784,VALID,-0.0509425,VALID,18.335,VALID,101,VALID,1.38682,
2002-05-16, 01:46:00,VALID,918.466,VALID,0,VALID,89.1433,VALID,-0.0169808,VALID,18.3158,VALID,102,VALID,1.42067,
2002-05-16, 01:47:00,VALID,918.456,VALID,0,VALID,89.1293,VALID,-0.0679233,VALID,18.3165,VALID,99,VALID,1.17882,
2002-05-16, 01:48:00,VALID,918.447,VALID,0,VALID,89.1306,VALID,-0.0509425,VALID,18.3094,VALID,115,VALID,1.48818,
2002-05-16, 01:49:00,VALID,918.455,VALID,0,VALID,89.0784,VALID,-0.101885,VALID,18.3352,VALID,119,VALID,1.60325,
2002-05-16, 01:50:00,VALID,918.441,VALID,0,VALID,89.0657,VALID,-0.0849042,VALID,18.3285,VALID,114,VALID,1.41694,
2002-05-16, 01:51:00,VALID,918.436,VALID,0,VALID,89.2438,VALID,-0.0679233,VALID,18.3024,VALID,115,VALID,1.44552,
2002-05-16, 01:52:00,VALID,918.426,VALID,0,VALID,89.4434,VALID,-0.0849042,VALID,18.2766,VALID,116,VALID,1.40321,
2002-05-16, 01:53:00,VALID,918.417,VALID,0,VALID,89.4714,VALID,-0.0509425,VALID,18.2607,VALID,111,VALID,1.47994,
2002-05-16, 01:54:00,VALID,918.41,VALID,0,VALID,89.4383,VALID,-0.0679233,VALID,18.254,VALID,102,VALID,1.273,
2002-05-16, 01:55:00,VALID,918.401,VALID,0,VALID,89.526,VALID,-0.0169808,VALID,18.2575,VALID,89,VALID,1.21094,
2002-05-16, 01:56:00,VALID,918.407,VALID,0,VALID,89.5477,VALID,-0.0339617,VALID,18.2185,VALID,92,VALID,1.13862,
2002-05-16, 01:57:00,VALID,918.416,VALID,0,VALID,89.5311,VALID,-0.0509425,VALID,18.2092,VALID,107,VALID,1.33045,
2002-05-16, 01:58:00,VALID,918.418,VALID,0,VALID,89.6519,VALID,-0.0339617,VALID,18.1797,VALID,115,VALID,1.23458,
2002-05-16, 01:59:00,VALID,918.421,VALID,0,VALID,89.7371,VALID,-0.0679233,VALID,18.1668,VALID,120,VALID,1.29644,
2002-05-16, 02:00:00,VALID,918.393,VALID,0,VALID,89.802,VALID,-0.0169808,VALID,18.1474,VALID,101,VALID,1.14295,
2002-05-16, 02:01:00,VALID,918.389,VALID,0,VALID,89.7816,VALID,-0.0679233,VALID,18.1444,VALID,103,VALID,1.40885,
2002-05-16, 02:02:00,VALID,918.395,VALID,0,VALID,89.5744,VALID,-0.0339617,VALID,18.1474,VALID,110,VALID,1.23881,
2002-05-16, 02:03:00,VALID,918.395,VALID,0,VALID,89.1598,VALID,-0.0679233,VALID,18.1832,VALID,113,VALID,1.26727,
2002-05-16, 02:04:00,VALID,918.407,VALID,0,VALID,88.6296,VALID,-0.0679233,VALID,18.2445,VALID,116,VALID,1.17694,
2002-05-16, 02:05:00,VALID,918.414,VALID,0,VALID,88.3841,VALID,-0.0339617,VALID,18.2861,VALID,110,VALID,1.02027,
2002-05-16, 02:06:00,VALID,918.431,VALID,0,VALID,88.2913,VALID,-0.0679233,VALID,18.2994,VALID,106,VALID,1.00741,
2002-05-16, 02:07:00,VALID,918.433,VALID,0,VALID,88.3485,VALID,-0.0679233,VALID,18.2962,VALID,111,VALID,1.11545,
2002-05-16, 02:08:00,VALID,918.422,VALID,0,VALID,88.3778,VALID,-0.0679233,VALID,18.2962,VALID,104,VALID,1.34903,
2002-05-16, 02:09:00,VALID,918.417,VALID,0,VALID,88.2354,VALID,0.0339617,VALID,18.2948,VALID,100,VALID,1.34903,
2002-05-16, 02:10:00,VALID,918.425,VALID,0,VALID,88.0154,VALID,0.0509425,VALID,18.3071,VALID,99,VALID,1.12459,
2002-05-16, 02:11:00,VALID,918.449,VALID,0,VALID,88.0942,VALID,0.0339617,VALID,18.3174,VALID,105,VALID,1.38137,
2002-05-16, 02:12:00,VALID,918.454,VALID,0,VALID,87.7903,VALID,0.0339617,VALID,18.3527,VALID,112,VALID,1.43902,
2002-05-16, 02:13:00,VALID,918.468,VALID,0,VALID,87.6593,VALID,0.0509425,VALID,18.3853,VALID,113,VALID,1.16976,
2002-05-16, 02:14:00,VALID,918.466,VALID,0,VALID,87.5919,VALID,0.0849042,VALID,18.3816,VALID,114,VALID,0.938368,
2002-05-16, 02:15:00,VALID,918.468,VALID,0,VALID,87.6352,VALID,0.101885,VALID,18.3689,VALID,108,VALID,0.958789,
2002-05-16, 02:16:00,VALID,918.455,VALID,0,VALID,87.8145,VALID,0.0509425,VALID,18.3624,VALID,113,VALID,0.927684,
2002-05-16, 02:17:00,VALID,918.438,VALID,0,VALID,87.9289,VALID,0.0509425,VALID,18.3435,VALID,114,VALID,1.06102,
2002-05-16, 02:18:00,VALID,918.439,VALID,0,VALID,87.9734,VALID,0.0339617,VALID,18.3269,VALID,113,VALID,1.10382,
2002-05-16, 02:19:00,VALID,918.429,VALID,0,VALID,88.0586,VALID,0.0509425,VALID,18.3207,VALID,102,VALID,0.975043,
2002-05-16, 02:20:00,VALID,918.441,VALID,0,VALID,88.2125,VALID,0,VALID,18.2884,VALID,92,VALID,0.936444,
2002-05-16, 02:21:00,VALID,918.435,VALID,0,VALID,88.4083,VALID,0,VALID,18.2494,VALID,83,VALID,0.801883,
2002-05-16, 02:22:00,VALID,918.436,VALID,0,VALID,88.6817,VALID,0.0509425,VALID,18.2109,VALID,91,VALID,1.0492,
2002-05-16, 02:23:00,VALID,918.422,VALID,0,VALID,88.58,VALID,0.0169808,VALID,18.191,VALID,100,VALID,0.99815,
2002-05-16, 02:24:00,VALID,918.394,VALID,0,VALID,88.4185,VALID,-0.0509425,VALID,18.2021,VALID,95,VALID,0.917652,
2002-05-16, 02:25:00,VALID,918.375,VALID,0,VALID,87.597,VALID,-0.0679233,VALID,18.1666,VALID,92,VALID,0.579814,
2002-05-16, 02:26:00,VALID,918.363,VALID,0,VALID,87.152,VALID,-0.0849042,VALID,18.0053,VALID,87,VALID,0.344952,
2002-05-16, 02:27:00,VALID,918.352,VALID,0,VALID,87.8513,VALID,-0.0679233,VALID,17.8021,VALID,87,VALID,0.230903,
2002-05-16, 02:28:00,VALID,918.343,VALID,0,VALID,88.613,VALID,-0.0679233,VALID,17.6146,VALID,60,VALID,0.31609,
2002-05-16, 02:29:00,VALID,918.343,VALID,0,VALID,89.8605,VALID,-0.0849042,VALID,17.4861,VALID,19,VALID,0.259924,
2002-05-16, 02:30:00,VALID,918.33,VALID,0,VALID,90.2343,VALID,-0.0679233,VALID,17.3664,VALID,18,VALID,0.510074,
2002-05-16, 02:31:00,VALID,918.328,VALID,0,VALID,91.3508,VALID,-0.0679233,VALID,17.2691,VALID,19,VALID,0.464021,
2002-05-16, 02:32:00,VALID,918.322,VALID,0,VALID,91.7132,VALID,-0.0679233,VALID,17.2179,VALID,19,VALID,0.556858,
2002-05-16, 02:33:00,VALID,918.333,VALID,0,VALID,92.0158,VALID,-0.101885,VALID,17.121,VALID,26,VALID,0.650338,
2002-05-16, 02:34:00,VALID,918.342,VALID,0,VALID,92.4622,VALID,-0.0339617,VALID,17.0207,VALID,38,VALID,0.828776,
2002-05-16, 02:35:00,VALID,918.348,VALID,0,VALID,93.8495,VALID,-0.0339617,VALID,17.0144,VALID,45,VALID,0.939258,
2002-05-16, 02:36:00,VALID,918.346,VALID,0,VALID,94.114,VALID,-0.0509425,VALID,17.098,VALID,53,VALID,0.85016,
2002-05-16, 02:37:00,VALID,918.354,VALID,0,VALID,93.805,VALID,-0.0849042,VALID,17.1854,VALID,56,VALID,0.636719,
2002-05-16, 02:38:00,VALID,918.349,VALID,0,VALID,93.4121,VALID,-0.0849042,VALID,17.2047,VALID,58,VALID,0.614104,
2002-05-16, 02:39:00,VALID,918.341,VALID,0,VALID,93.3536,VALID,0,VALID,17.2166,VALID,77,VALID,0.950304,
2002-05-16, 02:40:00,VALID,918.307,VALID,0,VALID,93.332,VALID,0,VALID,17.2519,VALID,90,VALID,1.25296,
2002-05-16, 02:41:00,VALID,918.292,VALID,0,VALID,92.967,VALID,0,VALID,17.339,VALID,93,VALID,1.36699,
2002-05-16, 02:42:00,VALID,918.265,VALID,0,VALID,92.4813,VALID,0.0169808,VALID,17.4361,VALID,95,VALID,1.19109,
2002-05-16, 02:43:00,VALID,918.258,VALID,0,VALID,92.1328,VALID,0.0169808,VALID,17.4942,VALID,96,VALID,1.01645,
2002-05-16, 02:44:00,VALID,918.27,VALID,0,VALID,92.1672,VALID,0.0339617,VALID,17.5074,VALID,99,VALID,0.978041,
2002-05-16, 02:45:00,VALID,918.268,VALID,0,VALID,92.307,VALID,0,VALID,17.5067,VALID,112,VALID,1.09523,
2002-05-16, 02:46:00,VALID,918.269,VALID,0,VALID,92.4088,VALID,0.0509425,VALID,17.5231,VALID,104,VALID,1.0028,
2002-05-16, 02:47:00,VALID,918.274,VALID,0,VALID,92.3655,VALID,0.0169808,VALID,17.4998,VALID,103,VALID,0.98546,
2002-05-16, 02:48:00,VALID,918.264,VALID,0,VALID,92.3961,VALID,0.0339617,VALID,17.5035,VALID,112,VALID,1.41871,
2002-05-16, 02:49:00,VALID,918.25,VALID,0,VALID,92.1723,VALID,0.0339617,VALID,17.5101,VALID,110,VALID,1.39421,
2002-05-16, 02:50:00,VALID,918.255,VALID,0,VALID,91.8747,VALID,0.0509425,VALID,17.5189,VALID,108,VALID,1.18894,
2002-05-16, 02:51:00,VALID,918.25,VALID,0,VALID,91.6738,VALID,0.0509425,VALID,17.5454,VALID,117,VALID,1.03022,
2002-05-16, 02:52:00,VALID,918.237,VALID,0,VALID,91.6318,VALID,0.0679233,VALID,17.5452,VALID,127,VALID,1.03928,
2002-05-16, 02:53:00,VALID,918.215,VALID,0,VALID,91.525,VALID,0.0679233,VALID,17.5484,VALID,132,VALID,1.14189,
2002-05-16, 02:54:00,VALID,918.186,VALID,0,VALID,91.4207,VALID,-0.0169808,VALID,17.5756,VALID,132,VALID,1.08247,
2002-05-16, 02:55:00,VALID,918.145,VALID,0,VALID,91.2669,VALID,-0.0509425,VALID,17.5791,VALID,125,VALID,1.06094,
2002-05-16, 02:56:00,VALID,918.122,VALID,0,VALID,91.174,VALID,-0.0679233,VALID,17.6019,VALID,118,VALID,1.33193,
2002-05-16, 02:57:00,VALID,918.121,VALID,0,VALID,90.8027,VALID,-0.0679233,VALID,17.6406,VALID,115,VALID,1.47318,
2002-05-16, 02:58:00,VALID,918.117,VALID,0,VALID,90.2178,VALID,-0.0679233,VALID,17.7244,VALID,113,VALID,1.45333,
2002-05-16, 02:59:00,VALID,918.107,VALID,0,VALID,89.6507,VALID,-0.0169808,VALID,17.8051,VALID,112,VALID,1.34353,
2002-05-16, 03:00:00,VALID,918.114,VALID,0,VALID,89.0975,VALID,-0.0849042,VALID,17.8828,VALID,112,VALID,1.43644,
2002-05-16, 03:01:00,VALID,918.114,VALID,0,VALID,88.6347,VALID,-0.0679233,VALID,17.9308,VALID,113,VALID,1.36759,
2002-05-16, 03:02:00,VALID,918.111,VALID,0,VALID,88.3549,VALID,-0.0679233,VALID,17.9797,VALID,118,VALID,1.20144,
2002-05-16, 03:03:00,VALID,918.098,VALID,0,VALID,88.2837,VALID,-0.101885,VALID,17.9928,VALID,115,VALID,1.38466,
2002-05-16, 03:04:00,VALID,918.091,VALID,0,VALID,88.3918,VALID,-0.0679233,VALID,17.9636,VALID,112,VALID,1.27217,
2002-05-16, 03:05:00,VALID,918.07,VALID,0,VALID,88.5889,VALID,-0.0679233,VALID,17.9373,VALID,102,VALID,1.27935,
2002-05-16, 03:06:00,VALID,918.063,VALID,0,VALID,88.6474,VALID,-0.0169808,VALID,17.9608,VALID,110,VALID,1.4349,
2002-05-16, 03:07:00,VALID,918.044,VALID,0,VALID,88.6105,VALID,-0.101885,VALID,17.967,VALID,116,VALID,1.39996,
2002-05-16, 03:08:00,VALID,918.028,VALID,0,VALID,88.7745,VALID,-0.0509425,VALID,17.9435,VALID,122,VALID,1.34882,
2002-05-16, 03:09:00,VALID,918.011,VALID,0,VALID,89.0378,VALID,0.0509425,VALID,17.9108,VALID,121,VALID,1.35473,
2002-05-16, 03:10:00,VALID,917.997,VALID,0,VALID,89.1713,VALID,0,VALID,17.8559,VALID,124,VALID,1.07463,
2002-05-16, 03:11:00,VALID,917.996,VALID,0,VALID,89.4192,VALID,0.0169808,VALID,17.7781,VALID,126,VALID,0.888158,
2002-05-16, 03:12:00,VALID,918.001,VALID,0,VALID,89.938,VALID,0.0339617,VALID,17.6778,VALID,129,VALID,0.740668,
2002-05-16, 03:13:00,VALID,918.002,VALID,0,VALID,90.4937,VALID,0.0339617,VALID,17.5941,VALID,124,VALID,0.814189,
2002-05-16, 03:14:00,VALID,918.004,VALID,0,VALID,91.1486,VALID,0.0169808,VALID,17.5099,VALID,124,VALID,0.903429,
2002-05-16, 03:15:00,VALID,917.997,VALID,0,VALID,91.8556,VALID,0,VALID,17.4255,VALID,120,VALID,1.17871,
2002-05-16, 03:16:00,VALID,918,VALID,0,VALID,92.4151,VALID,0.0509425,VALID,17.3844,VALID,126,VALID,1.35537,
2002-05-16, 03:17:00,VALID,917.988,VALID,0,VALID,92.6733,VALID,0.0169808,VALID,17.3231,VALID,127,VALID,1.12753,
2002-05-16, 03:18:00,VALID,917.977,VALID,0,VALID,92.7661,VALID,0.0339617,VALID,17.2871,VALID,131,VALID,1.04708,
2002-05-16, 03:19:00,VALID,917.947,VALID,0,VALID,92.8157,VALID,0,VALID,17.2747,VALID,131,VALID,0.910156,
2002-05-16, 03:20:00,VALID,917.931,VALID,0,VALID,93.0153,VALID,0.0169808,VALID,17.246,VALID,136,VALID,1.03231,
2002-05-16, 03:21:00,VALID,917.934,VALID,0,VALID,93.1336,VALID,0.0509425,VALID,17.223,VALID,135,VALID,1.02825,
2002-05-16, 03:22:00,VALID,917.925,VALID,0,VALID,93.145,VALID,0.0509425,VALID,17.2062,VALID,137,VALID,1.10536,
2002-05-16, 03:23:00,VALID,917.922,VALID,0,VALID,92.9861,VALID,0.0169808,VALID,17.2527,VALID,140,VALID,1.23951,
2002-05-16, 03:24:00,VALID,917.905,VALID,0,VALID,92.5906,VALID,0,VALID,17.2915,VALID,142,VALID,1.1364,
2002-05-16, 03:25:00,VALID,917.91,VALID,0,VALID,92.1278,VALID,0,VALID,17.33,VALID,137,VALID,1.12838,
2002-05-16, 03:26:00,VALID,917.92,VALID,0,VALID,91.759,VALID,-0.0169808,VALID,17.3913,VALID,128,VALID,0.735377,
2002-05-16, 03:27:00,VALID,917.931,VALID,0,VALID,91.4309,VALID,0,VALID,17.4238,VALID,134,VALID,0.624349,
2002-05-16, 03:28:00,VALID,917.933,VALID,0,VALID,91.2834,VALID,0,VALID,17.4495,VALID,135,VALID,0.718117,
2002-05-16, 03:29:00,VALID,917.959,VALID,0,VALID,91.1664,VALID,-0.0339617,VALID,17.4628,VALID,136,VALID,0.657939,
2002-05-16, 03:30:00,VALID,917.979,VALID,0,VALID,91.1791,VALID,-0.0339617,VALID,17.4591,VALID,143,VALID,1.05572,
2002-05-16, 03:31:00,VALID,917.974,VALID,0,VALID,91.2084,VALID,0,VALID,17.4626,VALID,143,VALID,0.963405,
2002-05-16, 03:32:00,VALID,917.978,VALID,0,VALID,91.2224,VALID,0,VALID,17.4589,VALID,138,VALID,0.764974,